Weather History for Watford City, ND

Change the Weather History Date:

Thursday, January 17, 2013

  Actual Average (KISN) Record (KISN)
Temperature  
Mean Temperature 28 °F 11 °F  
Max Temperature 33 °F 22 °F 49 °F (1923)
Min Temperature 23 °F 0 °F -35 °F (1943)
Degree Days  
Heating Degree Days 37 54  
Month to date heating degree days 928  
Since 1 July heating degree days 4675  
Cooling Degree Days 0 0  
Month to date cooling degree days 0  
Year to date cooling degree days 0  
Moisture  
Dew Point 24 °F    
Average Humidity 86    
Maximum Humidity 93    
Minimum Humidity 75    
Precipitation  
Precipitation 0.01 in 0.02 in 0.55 in (1953)
Month to date precipitation 0.36  
Year to date precipitation 0.36  
Sea Level Pressure  
Sea Level Pressure 30.14 in    
Wind  
Wind Speed 9 mph (SSE)    
Max Wind Speed 16 mph    
Max Gust Speed -    
Visibility 10 miles    
Events Rain , Snow    
T = Trace of Precipitation, MM = Missing Value Source: NWS Daily Summary

Daily Weather History Graph

Daily Weather History Graph

Search for Another Location

Airport:

Trip Planner

Search our weather history database for the weather conditions in past years. The results will help you decide how hot, cold, wet, or windy it might be!

Date:

Astronomy

Jan. 17, 2013 Rise Set
Actual Time 8:35 AM CST 5:31 PM CST
Civil Twilight 8:00 AM CST 6:06 PM CST
Nautical Twilight 7:22 AM CST 6:44 PM CST
Astronomical Twilight 6:45 AM CST 7:21 PM CST
Moon 11:11 AM CST (1/17) No Moon Set
Length of Visible Light 10h 05m
Length of Day
8h 55m
Waxing Crescent, 38% of the Moon is Illuminated
Jan 17
Waxing Crescent
Jan 18
First Quarter
Jan 26
Full
Feb 3
Last Quarter
Feb 10
New

Hourly Weather History & Observations

Time (CST) Temp. Windchill Dew Point Humidity Pressure Visibility Wind Dir Wind Speed Gust Speed Precip Events Conditions
12:15 AM 26.6 °F 17.5 °F 24.8 °F 93% 30.14 in 10.0 mi WSW 9.2 mph - N/A   Mostly Cloudy
12:35 AM 26.6 °F 17.5 °F 24.8 °F 93% 30.14 in 10.0 mi WSW 9.2 mph - N/A   Overcast
12:55 AM 28.4 °F 18.5 °F 26.6 °F 93% 30.16 in 10.0 mi West 11.5 mph - N/A   Mostly Cloudy
1:15 AM 32.0 °F 22.5 °F 26.6 °F 80% 30.17 in 10.0 mi WNW 12.7 mph - N/A   Mostly Cloudy
1:35 AM 32.0 °F 22.5 °F 28.4 °F 87% 30.18 in 10.0 mi West 12.7 mph - N/A   Overcast
1:55 AM 32.0 °F 22.5 °F 28.4 °F 87% 30.18 in 10.0 mi WNW 12.7 mph - N/A   Overcast
2:15 AM 32.0 °F 24.2 °F 28.4 °F 87% 30.19 in 10.0 mi West 9.2 mph - N/A   Overcast
2:35 AM 32.0 °F 23.0 °F 28.4 °F 87% 30.20 in 10.0 mi WNW 11.5 mph - N/A   Overcast
3:35 AM 32.0 °F 24.2 °F 28.4 °F 87% 30.21 in 10.0 mi NW 9.2 mph - N/A   Overcast
3:55 AM 30.2 °F 21.9 °F 26.6 °F 86% 30.22 in 10.0 mi NW 9.2 mph - N/A   Overcast
4:15 AM 28.4 °F 19.1 °F 26.6 °F 93% 30.24 in 10.0 mi NW 10.4 mph - N/A   Scattered Clouds
4:35 AM 28.4 °F 21.2 °F 24.8 °F 86% 30.24 in 10.0 mi NNW 6.9 mph - N/A   Clear
4:55 AM 28.4 °F 23.3 °F 24.8 °F 86% 30.25 in 10.0 mi NNW 4.6 mph - N/A   Mostly Cloudy
5:15 AM 28.4 °F 19.1 °F 24.8 °F 86% 30.25 in 10.0 mi North 10.4 mph - N/A   Overcast
5:35 AM 26.6 °F 17.5 °F 24.8 °F 93% 30.25 in 10.0 mi North 9.2 mph - N/A   Overcast
5:55 AM 26.6 °F 15.7 °F 23.0 °F 86% 30.25 in 10.0 mi North 12.7 mph - N/A   Mostly Cloudy
6:15 AM 24.8 °F 16.9 °F 23.0 °F 93% 30.24 in 10.0 mi NNW 6.9 mph - N/A   Scattered Clouds
6:35 AM 24.8 °F 19.1 °F 23.0 °F 93% 30.25 in 10.0 mi NNW 4.6 mph - N/A   Partly Cloudy
6:55 AM 24.8 °F 16.9 °F 23.0 °F 93% 30.26 in 10.0 mi North 6.9 mph - N/A   Scattered Clouds
7:15 AM 24.8 °F 15.3 °F 23.0 °F 93% 30.26 in 10.0 mi North 9.2 mph - N/A   Partly Cloudy
7:35 AM 24.8 °F 16.9 °F 19.4 °F 80% 30.26 in 10.0 mi NNE 6.9 mph - N/A   Clear
7:55 AM 23.0 °F 13.9 °F 19.4 °F 86% 30.26 in 10.0 mi North 8.1 mph - N/A   Scattered Clouds
8:15 AM 23.0 °F 14.7 °F 19.4 °F 86% 30.26 in 10.0 mi NNE 6.9 mph - N/A   Clear
8:35 AM 23.0 °F 15.8 °F 19.4 °F 86% 30.26 in 10.0 mi ENE 5.8 mph - N/A Rain Light Freezing Rain
8:55 AM 23.0 °F 15.8 °F 19.4 °F 86% 30.27 in 8.0 mi NE 5.8 mph - N/A Snow Light Snow
9:15 AM 23.0 °F 18.4 °F 19.4 °F 86% 30.28 in 3.0 mi East 3.5 mph - N/A Snow Light Snow
9:35 AM 23.0 °F 18.4 °F 19.4 °F 86% 30.28 in 5.0 mi East 3.5 mph - 0.01 in Snow Light Snow
9:55 AM 23.0 °F 17.0 °F 19.4 °F 86% 30.28 in 10.0 mi SE 4.6 mph - 0.01 in Snow Light Snow
10:15 AM 23.0 °F 18.4 °F 19.4 °F 86% 30.27 in 10.0 mi SSE 3.5 mph - N/A Snow Light Snow
10:35 AM 23.0 °F 17.0 °F 19.4 °F 86% 30.27 in 10.0 mi South 4.6 mph - N/A   Mostly Cloudy
10:55 AM 23.0 °F 17.0 °F 19.4 °F 86% 30.26 in 8.0 mi SSE 4.6 mph - N/A Snow Light Snow
11:15 AM 24.8 °F 19.1 °F 19.4 °F 80% 30.25 in 10.0 mi SSE 4.6 mph - N/A   Overcast
11:35 AM 24.8 °F 19.1 °F 21.2 °F 86% 30.23 in 10.0 mi SE 4.6 mph - N/A   Overcast
11:55 AM 24.8 °F 19.1 °F 23.0 °F 93% 30.23 in 10.0 mi ESE 4.6 mph - N/A   Overcast
12:15 PM 26.6 °F 20.0 °F 23.0 °F 86% 30.22 in 10.0 mi ENE 5.8 mph - N/A   Overcast
12:35 PM 24.8 °F 17.9 °F 23.0 °F 93% 30.20 in 10.0 mi East 5.8 mph - N/A   Overcast
12:55 PM 26.6 °F 19.1 °F 23.0 °F 86% 30.19 in 10.0 mi ESE 6.9 mph - N/A   Overcast
1:15 PM 26.6 °F 15.7 °F 23.0 °F 86% 30.17 in 10.0 mi ESE 12.7 mph - N/A   Overcast
1:35 PM 26.6 °F 16.2 °F 23.0 °F 86% 30.16 in 10.0 mi ESE 11.5 mph - N/A   Overcast
1:55 PM 26.6 °F 14.7 °F 24.8 °F 93% 30.13 in 10.0 mi ESE 15.0 mph - N/A   Overcast
2:15 PM 28.4 °F 16.6 °F 24.8 °F 86% 30.11 in 10.0 mi ESE 16.1 mph - N/A   Overcast
2:35 PM 28.4 °F 17.5 °F 24.8 °F 86% 30.09 in 10.0 mi ESE 13.8 mph - N/A   Overcast
2:55 PM 28.4 °F 17.5 °F 24.8 °F 86% 30.08 in 10.0 mi ESE 13.8 mph - N/A   Mostly Cloudy
3:15 PM 28.4 °F 18.5 °F 24.8 °F 86% 30.07 in 10.0 mi SE 11.5 mph - N/A   Partly Cloudy
3:35 PM 28.4 °F 19.7 °F 26.6 °F 93% 30.05 in 10.0 mi SE 9.2 mph - N/A   Clear
3:55 PM 30.2 °F 20.8 °F 26.6 °F 86% 30.05 in 10.0 mi SE 11.5 mph - N/A   Partly Cloudy
4:55 PM 30.2 °F 21.3 °F 26.6 °F 86% 30.02 in 10.0 mi SSE 10.4 mph - N/A   Scattered Clouds
5:35 PM 30.2 °F 22.6 °F 26.6 °F 86% 30.01 in 10.0 mi SSE 8.1 mph - N/A   Mostly Cloudy
7:55 PM 32.0 °F 26.4 °F 26.6 °F 80% 29.94 in 10.0 mi South 5.8 mph - N/A   Mostly Cloudy
8:15 PM 32.0 °F 26.4 °F 26.6 °F 80% 29.92 in 10.0 mi SSW 5.8 mph - N/A   Mostly Cloudy
8:55 PM 32.0 °F 26.4 °F 26.6 °F 80% 29.89 in 10.0 mi SW 5.8 mph - N/A   Overcast
9:15 PM 33.8 °F 25.3 °F 26.6 °F 75% 29.87 in 10.0 mi SW 11.5 mph - N/A   Scattered Clouds
9:35 PM 33.8 °F 24.3 °F 26.6 °F 75% 29.87 in 10.0 mi SW 13.8 mph - N/A   Clear
9:55 PM 33.8 °F 25.8 °F 26.6 °F 75% 29.85 in 10.0 mi SW 10.4 mph - N/A   Clear
11:15 PM 32.0 °F 24.2 °F 26.6 °F 80% 29.81 in 10.0 mi SW 9.2 mph - N/A   Clear
11:35 PM 32.0 °F 21.2 °F 26.6 °F 80% 29.79 in 10.0 mi SSW 16.1 mph - N/A   Clear
11:55 PM 32.0 °F 27.5 °F 26.6 °F 80% 29.81 in 10.0 mi West 4.6 mph - N/A   Partly Cloudy